Regional Weather Roundup
Issued by NWS

Home | Current Version | Previous Version | Graphics & Text | Print | Product List | Glossary On
Versions: 1 2 3 4 5 6 7 8 9 10 11 12 13 14 15 16 17 18 19 20 21 22 23 24 25 26 27 28 29 30 31 32 33 34 35 36 37 38 39 40 41 42 43 44 45 46 47 48 49 50
000
ASUS43 KLOT 301704
RWRIL

ILLINOIS REGIONAL WEATHER ROUNDUP
NATIONAL WEATHER SERVICE CHICAGO/ROMEOVILLE IL
1200 PM CDT FRI SEP 30 2016

NOTE: "FAIR" INDICATES FEW OR NO CLOUDS BELOW 12,000 FEET WITH NO
SIGNIFICANT WEATHER AND/OR OBSTRUCTIONS TO VISIBILITY.

* THESE STATIONS ARE NOT UNDER NWS QUALITY CONTROL. THEY ALSO MAY NOT
  REPORT WEATHER SUCH AS PRECIPITATION OR FOG.

ILZ001-002-007-009-015-016-024-301800-
NORTHWEST ILLINOIS

CITY           SKY/WX    TMP DP  RH WIND       PRES   REMARKS
MOLINE         CLOUDY    64  56  75 N12       30.18F
STERLING*      LGT RAIN  64  59  83 NE10      30.17F
SAVANNA*       CLOUDY    63  57  83 N10G16    30.19F
$$

ILZ003-004-008-010-011-017-018-301800-
NORTH CENTRAL ILLINOIS

CITY           SKY/WX    TMP DP  RH WIND       PRES   REMARKS
ROCKFORD       CLOUDY    66  57  72 NE16G26   30.17F
FREEPORT*      CLOUDY    61  57  85 N8        30.20F
ROCHELLE*      CLOUDY    64  59  83 NE16      30.16S
$$

ILZ005-006-012>014-019>023-301800-
NORTHEAST ILLINOIS

CITY           SKY/WX    TMP DP  RH WIND       PRES   REMARKS
CHICAGO-OHARE  CLOUDY    63  60  90 NE14      30.14F
CHICAGO-MIDWAY CLOUDY    65  60  84 NE18G25   30.12F
AURORA         CLOUDY    65  59  81 NE13      30.14S
LANSING*       CLOUDY    63  61  94 NE15      30.12S
JOLIET*        CLOUDY    65  62  91 NE14      30.12F
WAUKEGAN       LGT RAIN  62  60  93 NE8       30.16S FOG
DUPAGE AIRPORT LGT RAIN  62  59  90 NE10      30.14F
KANKAKEE*      CLOUDY    63  60  93 NE9       30.11S
WHEELING       CLOUDY    63  60  90 NE8       30.16F
MORRIS*        RAIN      64  60  86 NE5       30.11F
ROMEOVILLE*    LGT RAIN  62  62 100 NE12      30.12F
NORTHERLY ISL    N/A     63  58  83 NE16        N/A
$$

LMZ740>746-301800-
SOUTHERN LAKE MICHIGAN

STATION/POSITION SKY/WX   TEMP    WIND        PRES    VSBY  WAVE
                          AIR SEA DIR/SP/G                  HT/PER
                          (F)     (DEG/KT/KT) (MB)    (MI)  (FT/S)
SOUTHERN BUOY              62 67   70/ 19/ 23 1021.0          5/ 6
WILMETTE HARBOR            62 58   80/ 14/ 17   N/A           6/ 6
HARRISON CRIB              64      60/ 23/ 26   N/A
BURNHAM HARBOR             63      50/ 11/ 18   N/A
CALUMET HARBOR             63      30/ 13/ 17 1019.6F
BURNS HARBOR               63      50/ 18/ 23 1020.0S
MICHIGAN CITY              60      20/ 16/ 17   N/A
MICHIGAN CITY 6N           62 64   40/ 12/ 17   N/A           6/ 7
ST. JOSEPH                 60 53   50/ 12/ 16 1020.1F         4/ 6
$$

ILZ025>027-034>036-040-047-049-050-058-095>099-301800-
WEST-CENTRAL ILLINOIS

CITY           SKY/WX    TMP DP  RH WIND       PRES   REMARKS
QUINCY         CLOUDY    63  56  78 N14       30.16R
GALESBURG*     CLOUDY    62  57  83 N15       30.16F
MACOMB*        CLOUDY    62  57  83 N16       30.18F
JACKSONVILLE*  CLOUDY    64  58  78 N10       30.13S
PITTSFIELD*    CLOUDY    64  58  80 N10       30.14F
$$

ILZ028>032-037-038-041>044-048-051>054-059>061-301800-
CENTRAL ILLINOIS

CITY           SKY/WX    TMP DP  RH WIND       PRES   REMARKS
PONTIAC        CLOUDY    64  64  98 NE13      30.12S
BLOOMINGTON    LGT RAIN  62  60  93 N14       30.11S
DECATUR        CLOUDY    64  59  83 N12       30.09S
PEORIA         LGT RAIN  61  61 100 N7        30.14S FOG
LACON*         DRIZZLE   61  59  94 N7        30.13S
LINCOLN*       CLOUDY    64  61  91 N8        30.11R
SPRINGFIELD    CLOUDY    65  62  90 N12       30.11F
TAYLORVILLE    CLOUDY    64  60  90 N12       30.09F
$$

ILZ033-039-045-046-055>057-062-063-301800-
EAST-CENTRAL ILLINOIS

CITY           SKY/WX    TMP DP  RH WIND       PRES   REMARKS
CHAMPAIGN      CLOUDY    65  59  81 NE9       30.07F
RANTOUL*       CLOUDY    65  61  88 NE14      30.08F
MATTOON        CLOUDY    63  59  87 N12       30.05S
PARIS*         CLOUDY    65  60  85 CALM      30.05F
$$

ILZ079-100>102-301800-
SOUTHWEST ILLINOIS

CITY           SKY/WX    TMP DP  RH WIND       PRES   REMARKS
ALTON          CLOUDY    63  57  82 N10G16    30.11S
BELLEVILLE     MOSUNNY   65  61  86 VRB6      30.09R
CAHOKIA*       CLOUDY    66  57  72 N14       30.11S
SPARTA*        CLOUDY    65  60  82 N12G17    30.09F
$$

ILZ064>066-069>071-074>076-080>082-084>086-088>090-092>094-301800-
SOUTH-CENTRAL ILLINOIS

CITY           SKY/WX    TMP DP  RH WIND       PRES   REMARKS
CARBONDALE     CLOUDY    62  61  96 NW8       30.07F
EFFINGHAM*     CLOUDY    64  61  91 NW7       30.08R
MT. VERNON     CLOUDY    64  57  77 N6        30.07F
CENTRALIA*     CLOUDY    64  62  95 N7        30.06F
SALEM*         DRIZZLE   64  60  87 N7        30.07F
METROPOLIS*    LGT RAIN  62  60  94 CALM      30.08S
$$

ILZ067-068-072-073-078-083-087-091-301800-
SOUTHEAST ILLINOIS

CITY           SKY/WX    TMP DP  RH WIND       PRES   REMARKS
LAWRENCEVILLE  PTSUNNY   67  57  70 E7        30.04S
FLORA*         PTSUNNY   69  60  74 N5        30.05F
FAIRFIELD*       N/A     64  60  85 N3        30.03F
HARRISBURG*    CLOUDY    64  62  93 NW8       30.06S
ROBINSON*      CLOUDY    66  58  74 N9        30.05S
CARMI*         PTSUNNY   66  60  80 NE8       30.03F
$$

ABBREVIATIONS USED IN REMARKS
   TC - TEMPERATURE IN CELSIUS
  WCI - WIND CHILL INDEX
   HX - HEAT INDEX
  VSB - VISIBILITY
$$




USA.gov is the U.S. government's official web portal to all federal, state and local government web resources and services.